EW8618 Weather Reports


time (UTC)temp
C
wind
direction
speed
KPH
gust
KPH
rain 1hr
cm
rain 24hr
cm
rain mn
cm
humidity
%
barometer
mb
20260505201525 13 294 0.0 0.0 0.00 0.00 0.00 83 1011.9
20260505200023 13 294 0.0 0.0 0.00 0.00 0.00 83 1012.1
20260505194523 13 313 0.0 0.0 0.00 0.00 0.00 82 1012.1
20260505193022 13 281 0.0 0.0 0.00 0.00 0.00 81 1012.2
20260505191521 13 228 0.0 0.0 0.00 0.00 0.00 80 1012.1
20260505190026 13 150 0.0 0.0 0.00 0.00 0.00 80 1012.0
20260505184519 13 122 0.0 0.0 0.00 0.00 0.00 81 1012.0
20260505183016 12 122 0.0 0.0 0.00 0.00 0.00 81 1012.0
20260505181515 12 119 0.0 0.0 0.00 0.00 0.00 80 1012.0
20260505180012 12 127 0.0 0.0 0.00 0.00 0.00 79 1012.0
20260505174511 12 83 0.0 0.0 0.00 0.00 0.00 77 1011.8
20260505173009 12 54 0.0 0.0 0.00 0.00 0.00 78 1011.6
20260505171509 12 54 0.0 0.0 0.00 0.00 0.00 79 1011.5
20260505170015 12 219 0.0 0.0 0.00 0.00 0.00 78 1011.4
20260505163009 12 346 0.0 0.0 0.00 0.00 0.00 79 1011.2
20260505161502 11 261 0.0 0.0 0.00 0.00 0.00 81 1011.2
20260505153054 10 248 0.0 0.0 0.00 0.00 0.00 85 1011.1
20260505151549 10 248 0.0 0.0 0.00 0.00 0.00 86 1011.1
20260505124532 9 300 0.0 0.0 0.00 0.00 0.00 90 1010.5
20260505123031 9 300 0.0 0.0 0.00 0.00 0.00 90 1010.6
20260505121536 9 300 0.0 0.0 0.00 0.00 0.00 90 1010.6
20260505120055 9 300 0.0 0.0 0.00 0.00 0.00 90 1010.6
20260505114529 9 300 0.0 0.0 0.00 0.00 0.00 89 1010.7
20260505113029 9 300 0.0 0.0 0.00 0.00 0.00 89 1010.7
20260505111528 9 300 0.0 0.0 0.00 0.00 0.00 89 1010.7
20260505101525 10 300 0.0 0.0 0.00 0.00 0.00 89 1010.6
20260505100025 10 300 0.0 0.0 0.00 0.00 0.00 89 1010.8
20260505094522 10 300 0.0 0.0 0.00 0.00 0.00 88 1010.7
20260505093022 10 300 0.0 0.0 0.00 0.00 0.00 87 1010.8
20260505091527 10 300 0.0 0.0 0.00 0.00 0.00 87 1010.7
20260505090036 10 300 0.0 0.0 0.00 0.00 0.00 87 1011.1
20260505084519 10 300 0.0 0.0 0.00 0.00 0.00 86 1011.1
20260505083017 10 300 0.0 0.0 0.00 0.00 0.00 87 1011.4
20260505081517 10 300 0.0 0.0 0.00 0.00 0.00 86 1011.3
20260505080016 10 300 0.0 0.0 0.00 0.00 0.00 86 1011.6
20260505074515 10 300 0.0 0.0 0.00 0.00 0.00 86 1011.5
20260505073027 10 300 0.0 0.0 0.00 0.00 0.00 86 1011.4
20260505071517 10 300 0.0 0.0 0.00 0.00 0.00 85 1011.3
20260505070011 10 300 0.0 0.0 0.00 0.00 0.00 85 1011.1
20260505064528 10 300 0.0 0.0 0.00 0.00 0.00 84 1011.2
20260505063009 10 300 0.0 0.0 0.00 0.00 0.00 85 1011.1
20260505061522 10 300 0.0 0.0 0.00 0.00 0.00 84 1010.9
20260505060008 10 300 0.0 0.0 0.00 0.00 0.00 83 1010.8
20260505054509 10 300 0.0 0.0 0.00 0.00 0.00 83 1011.1
20260505053007 10 300 0.0 0.0 0.00 0.00 0.00 83 1011.4
20260505051508 11 300 0.0 0.0 0.00 0.00 0.00 83 1011.5
20260505041510 11 300 0.0 0.0 0.00 0.00 0.00 77 1011.0
20260505040005 11 300 0.0 0.0 0.00 0.00 0.00 76 1011.0
20260505034508 12 300 0.0 0.0 0.00 0.00 0.00 74 1010.6
20260505033003 12 300 0.0 0.0 0.00 0.00 0.00 73 1010.3
20260505030002 12 313 0.0 0.0 0.00 0.00 0.00 74 1010.4
20260505024503 12 298 0.0 0.0 0.00 0.00 0.00 72 1010.4
20260505023002 12 277 1.6 0.0 0.00 0.00 0.00 72 1010.4
20260505021502 13 227 0.0 0.0 0.00 0.00 0.00 75 1010.3
20260505020100 13 261 0.0 0.0 0.00 0.00 0.00 72 1010.1
20260505014609 14 306 0.0 0.0 0.00 0.00 0.00 72 1010.1
20260505013110 15 322 0.0 0.0 0.00 0.00 0.00 70 1010.1
20260505011559 15 296 0.0 0.0 0.00 0.00 0.00 69 1010.2
20260505004600 15 279 1.6 0.0 0.00 0.00 0.00 70 1010.4
20260505003057 14 289 1.6 0.0 0.00 0.00 0.00 71 1010.4
20260505001600 13 306 1.6 0.0 0.00 0.00 0.00 73 1010.4
20260505000114 13 276 1.6 0.0 0.00 0.00 0.00 73 1010.4
20260504234555 13 261 1.6 0.0 0.00 0.00 0.00 73 1010.4
20260504233059 13 258 1.6 0.0 0.00 0.00 0.00 75 1010.5
20260504231555 13 290 1.6 0.0 0.00 0.00 0.00 75 1010.4
20260504230106 14 273 0.0 0.0 0.00 0.00 0.00 73 1010.5
20260504224553 15 284 0.0 0.0 0.00 0.00 0.00 71 1010.4
20260504223058 15 271 0.0 0.0 0.00 0.00 0.00 70 1010.6
20260504221601 15 270 0.0 0.0 0.00 0.00 0.00 68 1010.6
20260504220055 16 280 1.6 0.0 0.00 0.00 0.00 68 1010.6
20260504214550 16 277 1.6 0.0 0.00 0.00 0.00 69 1010.8
20260504213049 14 279 1.6 0.0 0.00 0.00 0.00 72 1010.9
20260504211548 14 283 0.0 0.0 0.00 0.00 0.00 74 1011.1
20260504210051 13 284 0.0 0.0 0.00 0.00 0.00 74 1011.2
20260504204547 13 273 1.6 0.0 0.00 0.00 0.00 73 1011.2
20260504203057 14 278 1.6 0.0 0.00 0.00 0.00 73 1011.2